Flag for Finland Weather past 2 weeks in Turku, Finland

Now
50 °F

Clear.


Feels Like: 48 °F
Forecast: 55 / 75 °F
Wind: 5 mph from Northwest

Location: Turku Airport

Current Time: Jul 1, 2015 at 4:02:24 AM

Latest Report: Jul 1, 2015 at 3:20 AM


Visibility: 10 mi

Pressure: 30.07 "Hg

Humidity: 94%

Dew point: 48 °F

Location of TurkuLocation

Historic Weather in Turku — Graph

°F

Turku temperature yesterday

Maximum temperature yesterday: 66 °F (at 1:50 PM)
Minimum temperature yesterday: 54 °F (at 11:50 PM)
Average temperature yesterday: 60 °F

Past Weeks' High & Low Weather Summary

 TemperatureHumidityPressure
High68 °F (Jun 23, 3:50 PM)100% (Jun 18, 2:50 PM)30.07 "Hg (Jun 18, 2:50 PM)
Low41 °F (Jun 20, 3:50 AM)36% (Jun 17, 1:20 PM)29.56 "Hg (Jun 18, 3:50 PM)
Average56 °F79%29.83 "Hg
* Reported Jun 16 2:20 AM — Jul 1 2:50 AM, Turku, Weather by CustomWeather, © 2015

Note: Actual official high and low records may vary slightly from our data, if they occured in-between our weather recording intervals... More about our weather records

Advertising

Turku weather history for previous 24 hours

 ConditionsComfort  
Time TempWeatherWind HumidityBarometerVisibility
2:50 AM
Wed, Jul 1
50 °FClear.5 mph94%30.07 "Hg10 mi
2:20 AM50 °FClear.5 mph94%30.07 "Hg10 mi
1:50 AM52 °FClear.7 mph88%30.07 "Hg10 mi
1:20 AM52 °FClear.8 mph94%30.07 "Hg10 mi
12:50 AM54 °FPassing clouds.7 mph88%30.04 "HgN/A
12:20 AM54 °FClear.7 mph88%30.04 "Hg10 mi
11:50 PM
Tue, Jun 30
54 °FSunny.7 mph88%30.04 "Hg10 mi
11:20 PM55 °FPassing clouds.8 mph82%30.04 "HgN/A
10:50 PM57 °FSunny.8 mph77%30.01 "Hg10 mi
10:20 PM57 °FPassing clouds.9 mph77%30.01 "HgN/A
9:50 PM59 °FPassing clouds.9 mph77%30.01 "HgN/A
9:20 PM59 °FSunny.10 mph77%30.01 "Hg10 mi
8:50 PM61 °FPassing clouds.14 mph77%29.98 "HgN/A
7:50 PM63 °FScattered clouds.10 mph73%29.98 "HgN/A
7:20 PM63 °FPassing clouds.12 mph73%29.98 "HgN/A
6:50 PM63 °FPassing clouds.15 mph73%29.98 "HgN/A
5:50 PM64 °FPassing clouds.12 mph73%29.95 "HgN/A
5:20 PM64 °FPassing clouds.14 mph73%29.95 "HgN/A
4:50 PM66 °FPassing clouds.15 mph68%29.95 "HgN/A
3:50 PM64 °FPartly sunny.12 mph78%29.95 "HgN/A
3:20 PM66 °FPartly sunny.13 mph73%29.92 "HgN/A
2:50 PM66 °FScattered clouds.14 mph73%29.92 "HgN/A
2:20 PM66 °FBroken clouds.12 mph73%29.92 "HgN/A
1:50 PM66 °FBroken clouds.13 mph73%29.92 "HgN/A
1:20 PM64 °FPartly sunny.10 mph78%29.92 "HgN/A
12:50 PM64 °FPartly sunny.8 mph78%29.92 "HgN/A
12:20 PM64 °FBroken clouds.12 mph78%29.92 "HgN/A
11:50 AM63 °FPartly sunny.8 mph83%29.92 "HgN/A
11:20 AM63 °FBroken clouds.7 mph83%29.92 "HgN/A
10:50 AM61 °FBroken clouds.6 mph88%29.92 "HgN/A
10:20 AM61 °FHeavy rain. Broken clouds.6 mph88%29.92 "Hg6 mi
9:50 AM61 °FBroken clouds.6 mph88%29.92 "HgN/A
9:20 AM61 °FBroken clouds.6 mph88%29.92 "HgN/A
8:50 AM61 °FScattered clouds.6 mph88%29.92 "HgN/A
8:20 AM61 °FScattered clouds.3 mph88%29.92 "HgN/A
7:50 AM59 °FScattered clouds.3 mph94%29.92 "HgN/A
7:20 AM59 °FScattered clouds.3 mph94%29.92 "HgN/A
6:50 AM57 °FScattered clouds.3 mph100%29.92 "HgN/A
6:20 AM57 °FRain. Broken clouds.5 mph94%29.92 "Hg6 mi
5:50 AM57 °FPartly sunny.3 mph94%29.92 "HgN/A
5:20 AM57 °FBroken clouds.3 mph94%29.92 "HgN/A
4:50 AM57 °FLight rain. Passing clouds.3 mph94%29.92 "HgN/A
4:20 AM57 °FPartly cloudy.3 mph94%29.92 "HgN/A
Weather by CustomWeather, © 2015

See weather overviewHow to use our weather pages